Regional Weather Roundup
Issued by NWS Wilmington, NC

Current Version | Previous Version | Text Only | Print | Product List | Glossary On
Versions: 1 2 3 4 5 6 7 8 9 10 11 12 13 14 15 16 17 18 19 20 21 22 23 24 25 26 27 28
000
ASUS42 KILM 301210
RWRILM
RWRILM
REGIONAL HOURLY WEATHER ROUNDUP
NATIONAL WEATHER SERVICE WILMINGTON NC
800 AM EDT FRI SEP 30 2022

NOTE: "FAIR" INDICATES FEW OR NO CLOUDS BELOW 12,000 FEET WITH NO
SIGNIFICANT WEATHER AND/OR OBSTRUCTIONS TO VISIBILITY.

...............WFO WILMINGTON COUNTY WARNING AREA...............

......COASTAL NC AND SC COUNTIES......

CITY           SKY/WX    TMP DP  RH WIND       PRES   REMARKS
WILMINGTON     LGT RAIN  67  64  90 NE23G33   29.77F
N MYRTLE BEACH LGT RAIN  63  62  97 NE25G35   29.68F FOG
MYRTLE BEACH   LGT RAIN  63  62  97 N22G32    29.66F

......INLAND NC AND SC COUNTIES.......

CITY           SKY/WX    TMP DP  RH WIND       PRES   REMARKS
LUMBERTON      RAIN      60  59  96 N24G33    29.85F FOG
ELIZABETHTOWN  NOT AVBL
WHITEVILLE     LGT RAIN  61  59  93 N15G32    29.80F
FLORENCE       HVY RAIN  59  57  93 NE17G36   29.83R FOG
DARLINGTON     HVY RAIN  57  57 100 N16G24    29.88F FOG
KINGSTREE      HVY RAIN  57  55  94 N16G28    29.75F
HARTSVILLE     LGT RAIN  55  54  94 NE17G26   29.87F
BENNETTSVILLE  RAIN      55  55 100 N13G22    29.90S
CONWAY         LGT RAIN  61  59  94 N22G32    29.72F
GEORGETOWN     HVY RAIN  61  61 100 N30G37    29.60F
MARION         LGT RAIN  59  54  82 N21G36    29.80F

....................REST OF NORTH CAROLINA......................

.........EASTERN NC.........

CITY           SKY/WX    TMP DP  RH WIND       PRES   REMARKS
CAPE HATTERAS  HVY RAIN  71  32  23 NE12G29   29.82F VSB 1/4
JACKSONVILLE   HVY RAIN  65  63  93 N21G31    29.85F FOG
MOREHEAD CITY  RAIN      68  67  96 N22G29    29.83S FOG
KENANSVILLE    HVY RAIN  63  61  94 NE15G28   29.90R FOG
NEW BERN       HVY RAIN  66  65  96 NE20G31   29.88F FOG
ELIZABETH CITY RAIN      67  65  93 NE26G32   30.00F FOG

.........CENTRAL NC.........

CITY           SKY/WX    TMP DP  RH WIND       PRES   REMARKS
RALEIGH DURHAM RAIN      56  54  93 NE21G29   30.03F FOG
ROCKY MOUNT    RAIN      58  56  93 N20G35    29.99F
ROANOKE RAPIDS NOT AVBL
FAYETTEVILLE   RAIN      59  58  96 NE25G35   29.90F FOG
HOFFMAN        RAIN      57  55  94 NE18G32   29.91

.........WESTERN NC.........

CITY           SKY/WX    TMP DP  RH WIND       PRES   REMARKS
CHARLOTTE      CLOUDY    53  50  89 N18G25    30.01F
GREENSBORO     LGT RAIN  53  48  83 NE16G23   30.09S
HICKORY        NOT AVBL
BOONE          NOT AVBL
ASHEVILLE      NOT AVBL

.....................REST OF SOUTH CAROLINA.....................

.........EASTERN SC.........

CITY           SKY/WX    TMP DP  RH WIND       PRES   REMARKS
CHARLESTON     HVY RAIN  60  59  96 N26G39    29.61  FOG
BEAUFORT MCAS  HVY RAIN  61  59  93 N30G40    29.64  FOG
HILTON HEAD    NOT AVBL

.........CENTRAL SC.........

CITY           SKY/WX    TMP DP  RH WIND       PRES   REMARKS
COLUMBIA       RAIN      56  54  93 N16G24    29.87S FOG
ORANGEBURG     RAIN      57  55  93 N20G30    29.80F FOG
SUMTER SHAW    NOT AVBL

.........WESTERN SC.........

CITY           SKY/WX    TMP DP  RH WIND       PRES   REMARKS
GREENVILLE     NOT AVBL
ROCK HILL      NOT AVBL
ANDERSON       CLOUDY    60  45  57 NE13G25   29.98S
CLEMSON        NOT AVBL
GREENWOOD      CLOUDY    59  46  62 NE18G26   29.97R


...................COASTAL AND OFFSHORE REPORTS..................

................LOCAL PIERS AND NC RESERVE................


STATION/POSITION TIME  SKY/WX   TEMP    WIND        PRES    VSBY
                                AIR SEA DIR/SP/G
                 (UTC)          (F)     (DEG/KT/KT) (MB)    (MI)
JOHNY MRCER PIER 1130            68 72   20/ 32/ 38 1007.4F
NC RESRV MASNBRO NOT AVBL
OCEAN CREST PIER NOT AVBL
SPRINGMAID  PIER 1130            63      20/ 23/ 33 1006.0F


................COASTAL AND OFFSHORE BUOYS................


STATION/POSITION TIME  SKY/WX   TEMP    WIND        PRES    VSBY
                                AIR SEA DIR/SP/G
                 (UTC)          (F)     (DEG/KT/KT) (MB)    (MI)
DIMNDSHOAL 41025 1150               83  110/ 27/ 35 1009.7R
CAPE LOOKOUT     1100            68      20/ 29/ 36 1010.1F
ONSLOW BAY 41036 NOT AVBL
ONSLOW BAY 41064 NOT AVBL
ONSLOW BAY 41159 1156               79                N/A
WVE H/P(F/S)= 14/11 SWL H/P/D(F/S/D)=  7/110/11

MASNBO INL 41110 1156               76                N/A
WVE H/P(F/S)= 10/ 7 SWL H/P/D(F/S/D)=  3/150/12

WILM HARBR 41108 1130               75                N/A
WVE H/P(F/S)= 10/11 SWL H/P/D(F/S/D)=  5/150/11

27SE WRITB 41037 NOT AVBL
FRYING PAN 41013 1150            78 79   80/ 25/ 33 1003.1F
WVE H/P(F/S)= 14/11 SWL H/P/D(F/S/D)= 11/150/11

SUNST NRSH 41024 NOT AVBL
CAPRS NRSH 41029 NOT AVBL
EDISTO     41004 1150            78 80   60/ 35/ 47  992.1F
WVE H/P(F/S)= 21/11



..........OFFSHORE BUOYS BEYOND 100 NM OFFSHORE...........
.....IN A TRIANGLE---HAT TO BERMUDA TO BAHAMAS TO HAT.....


STATION/POSITION TIME  SKY/WX   TEMP    WIND        PRES    VSBY
                                AIR SEA DIR/SP/G
                 (UTC)          (F)     (DEG/KT/KT) (MB)    (MI)
150E HAT   41001 1150            81 82  140/ 17/ 23 1014.1R
WVE H/P(F/S)= 12/ 9 SWL H/P/D(F/S/D)=  8/ 40/ 9

W BERMUDA  41048 1150                               1015.4F
WVE H/P(F/S)=  7/ 6

ATLANTIC S 41049 1150            82 83  120/ 12/ 16 1013.8R
WVE H/P(F/S)=  4/10 SWL H/P/D(F/S/D)=  3/ 60/10

E BAHAMAS  41046 1150            83 83  110/ 16/ 21 1011.7R
NE BAHAMAS 41047 1150            81 82  120/ 17/ 19 1009.7R
WVE H/P(F/S)=  5/ 8 SWL H/P/D(F/S/D)=  3/100/ 8

120E CANVRL41010 1150            77 84  250/ 23/ 29 1005.4R
WVE H/P(F/S)= 13/ 8 SWL H/P/D(F/S/D)=  7/340/12


END



USA.gov is the U.S. government's official web portal to all federal, state and local government web resources and services.